Location: Mentone
(34.5413°N, 85.5351°W)
Time: 10:26:42
(UTC-06:00)

A-11 Canister half - Visible Passes

Search period start: 26 January 2015 00:00
Search period end: 05 February 2015 00:00
Orbit: 1526 x 1684 km, 47.3° (Epoch: 25 January)

Date Brightness Start Highest point End Pass type
(mag) Time Alt. Az. Time Alt. Az. Time Alt. Az.
26 Jan 10.9 06:01:08 10° S 06:08:49 31° SE 06:16:46 10° ENE visible
27 Jan 10.9 05:39:51 10° S 05:47:20 29° SE 05:55:06 10° ENE visible
28 Jan 10.9 05:18:35 10° S 05:25:51 27° SE 05:33:25 10° ENE visible
29 Jan 10.9 04:57:20 10° S 05:04:21 26° SE 05:11:42 10° ENE visible
30 Jan 10.9 04:36:06 10° S 04:42:52 24° SE 04:49:59 10° ENE visible
31 Jan 10.9 04:14:54 10° S 04:21:23 22° SE 04:28:13 10° E visible
01 Feb 10.9 03:53:45 10° S 03:59:54 21° SE 04:06:28 10° E visible
01 Feb 9.2 05:54:45 10° SW 06:04:02 79° SE 06:13:23 10° NE visible
02 Feb 10.9 03:32:36 10° SSE 03:38:24 19° SE 03:44:39 10° E visible
02 Feb 9.2 05:33:14 10° SW 05:42:30 76° SE 05:51:50 10° ENE visible
03 Feb 10.9 03:11:30 10° SSE 03:16:55 18° SE 03:22:49 10° E visible
03 Feb 9.2 05:11:44 10° SW 05:20:59 72° SE 05:30:16 10° ENE visible
04 Feb 10.9 02:51:13 11° SSE 02:55:25 16° SE 03:00:56 10° E visible
04 Feb 9.2 04:50:15 10° SW 04:59:28 69° SE 05:08:43 10° ENE visible
